Location: B�hl
(48.6968°N, 8.1352°E)
Time: 23:57:03
(UTC+00:00)

SPOT 3 Rocket - Pass Details

Date: 08 March 2021
Orbit: 778 x 795 km, 98.7° (Epoch: 20 April)

Event Time Altitude Azimuth Distance (km) Brightness Sun altitude
Exits shadow 19:24:27 43° 98° (E) 1,104 3.8 -20.7°
Maximum altitude 19:25:20 48° 68° (ENE) 1,037 3.8 -20.9°
Drops below altitude 10° 19:30:21 10° 355° (N) 2,377 6.3 -21.7°
Sets 19:32:45 0° 350° (N) 3,311 7.2 -22.0°
